Terminal Aerodrome Forecast
Issued by NWS

Home | Current Version | Previous Version | Text Only | Print | Product List | Glossary On
Versions: 1 2 3 4 5 6 7 8 9 10 11 12 13 14 15 16 17 18
000
FTUS42 TJSJ 282300 RRA
TAFIST
TAF
TIST 282343Z 2900/2924 11008KT P6SM VCSH SCT025
      TEMPO 2900/2902 5SM SHRA BKN035
     FM292300 07008KT P6SM SCT025=

USA.gov is the U.S. government's official web portal to all federal, state and local government web resources and services.